WGS F9 (USA 275)

Last updated on Sun Jun 21 2026 00:03:07 GMT+0000 (Coordinated Universal Time)

1 42075U 17016A 26170.96189723 .00000000 00000+0 00000+0 0 9992 2 42075 0.0189 354.7894 0000365 318.4442 289.2241 1.00270097 33929
UTC large
Height (km)
Speed (km/s)
/
Latitude / Longitude
Inclination (degrees)
Orbital Period (minutes)
Azimuth
Elevation
Range (km)
Doppler Factor

Next 0 passes for location: London (51.5072 / 0.1276)

No passes found over London.
WGS F9 (USA 275)